Flag for Norway Weather past 2 weeks in Fosnavåg, Norway

Now
49 °F

Cool.


Feels Like: 44 °F
Forecast: 47 / 52 °F
Wind: 12 mph from West

Location: Svinoy Fyr

Current Time: Jun 3, 2015 at 5:56:08 PM

Latest Report: Jun 3, 2015 at 5:00 PM


Visibility: N/A

Pressure: 29.73 "Hg

Humidity: 78%

Dew point: 43 °F

Location of FosnavågLocation

Historic Weather in Fosnavåg — Graph

°F

Fosnavåg temperature yesterday

Maximum temperature yesterday: 51 °F (at 12:00 PM)
Minimum temperature yesterday: 46 °F (at 2:00 AM)
Average temperature yesterday: 48 °F

Past Weeks' High & Low Weather Summary

 TemperatureHumidityPressure
High53 °F (May 19, 5:00 PM)94% (May 22, 6:00 AM)30.08 "Hg (May 22, 6:00 AM)
Low41 °F (May 23, 1:00 PM)48% (May 19, 5:00 PM)29.12 "Hg (Jun 2, 3:00 PM)
Average47 °F79%29.64 "Hg
* Reported May 19 5:00 PM — Jun 3 4:00 PM, Fosnavåg, Weather by CustomWeather, © 2015

Note: Actual official high and low records may vary slightly from our data, if they occured in-between our weather recording intervals... More about our weather records

Advertising

Fosnavåg weather history for previous 24 hours

 ConditionsComfort  
Time TempWeatherWind HumidityBarometerVisibility
4:00 PM
Wed, Jun 3
49 °FCool.12 mph80%29.70 "HgN/A
3:00 PM49 °FCool.9 mph84%29.65 "HgN/A
2:00 PM49 °FCool.10 mph83%29.59 "HgN/A
12:00 PM47 °FCool.10 mph91%29.47 "HgN/A
11:00 AM48 °FCool.10 mph88%29.41 "HgN/A
10:00 AM47 °FCool.12 mph88%29.35 "HgN/A
9:00 AM47 °FCool.10 mph87%29.29 "HgN/A
8:00 AM46 °FCool.12 mph86%29.26 "HgN/A
7:00 AM47 °FCool.14 mph86%29.23 "HgN/A
6:00 AM47 °FCool.13 mph82%29.21 "HgN/A
4:00 AM47 °FCool.8 mph80%29.18 "HgN/A
3:00 AM46 °FCool.7 mph81%29.18 "HgN/A
2:00 AM46 °FCool.7 mph79%29.15 "HgN/A
1:00 AM46 °FCool.8 mph78%29.15 "HgN/A
12:00 AM47 °FCool.7 mph76%29.12 "HgN/A
10:00 PM
Tue, Jun 2
47 °FCool.3 mph79%29.12 "HgN/A
9:00 PM47 °FCool.3 mph79%29.12 "HgN/A
6:00 PM46 °FCool.5 mph78%29.12 "HgN/A
Weather by CustomWeather, © 2015

See weather overviewHow to use our weather pages